Weather History for KVPC - September, 2012

Change the Weather History Date:

Tuesday, September 18, 2012

  Actual Average Record
Temperature  
Mean Temperature 70 °F 71 °F  
Max Temperature 79 °F 82 °F - ()
Min Temperature 61 °F 59 °F - ()
Degree Days  
Heating Degree Days 0 0  
Month to date heating degree days 0  
Since 1 July heating degree days 0  
Cooling Degree Days 5 6  
Month to date cooling degree days 157  
Year to date cooling degree days 1422  
Growing Degree Days 20 (Base 50)    
Moisture  
Dew Point 66 °F    
Average Humidity 91    
Maximum Humidity 100    
Minimum Humidity 62    
Precipitation  
Precipitation 0.97 in 0.13 in - ()
Month to date precipitation 2.05  
Year to date precipitation 36.64  
Sea Level Pressure  
Sea Level Pressure 29.78 in    
Wind  
Wind Speed 4 mph (South)    
Max Wind Speed 8 mph    
Max Gust Speed -    
Visibility 8 miles    
Events Fog , Rain , Thunderstorm    
T = Trace of Precipitation, MM = Missing Value Source: NWS Daily Summary

Daily Weather History Graph

Daily Weather History Graph

Search for Another Location

Airport or City:

Trip Planner

Search our weather history database for the weather conditions in past years. The results will help you decide how hot, cold, wet, or windy it might be!

Date:

Astronomy

Sep. 18, 2012 Rise Set
Actual Time 7:25 AM EDT 7:41 PM EDT
Civil Twilight 6:59 AM EDT 8:06 PM EDT
Nautical Twilight 6:30 AM EDT 8:35 PM EDT
Astronomical Twilight 6:00 AM EDT 9:04 PM EDT
Moon 10:12 AM EDT (9/18) 9:15 PM EDT (9/18)
Length of Visible Light 13h 06m
Length of Day
12h 16m
Waxing Crescent, 9% of the Moon is Illuminated
Sep 18
Waxing Crescent
Sep 22
First Quarter
Sep 29
Full
Oct 8
Last Quarter
Oct 15
New

Hourly Weather History & Observations

Time (EDT) Temp. Dew Point Humidity Pressure Visibility Wind Dir Wind Speed Gust Speed Precip Events Conditions
12:15 AM 71.6 °F 71.6 °F 100% 29.80 in 10.0 mi South 6.9 mph - N/A   Mostly Cloudy
12:53 AM 72.0 °F 71.1 °F 97% 29.75 in 10.0 mi South 5.8 mph - N/A   Overcast
1:53 AM 72.0 °F 70.0 °F 93% 29.75 in 10.0 mi South 6.9 mph - N/A   Mostly Cloudy
2:00 AM 71.6 °F 69.8 °F 94% 29.79 in 10.0 mi South 6.9 mph - N/A   Mostly Cloudy
2:53 AM 72.0 °F 69.1 °F 91% 29.74 in 10.0 mi South 5.8 mph - N/A   Clear
3:30 AM 71.6 °F 69.8 °F 94% 29.77 in 10.0 mi South 4.6 mph - N/A   Mostly Cloudy
4:14 AM 71.6 °F 68.0 °F 88% 29.75 in 10.0 mi South 6.9 mph - N/A   Overcast
4:44 AM 71.6 °F 69.8 °F 94% 29.75 in 10.0 mi South 3.5 mph - N/A   Overcast
4:53 AM 72.0 °F 69.1 °F 91% 29.70 in 10.0 mi South 4.6 mph - N/A   Overcast
5:53 AM 71.1 °F 69.1 °F 93% 29.70 in 10.0 mi South 5.8 mph - 0.00 in Rain Light Rain
6:53 AM 71.1 °F 69.1 °F 93% 29.70 in 10.0 mi Calm Calm - 0.01 in   Overcast
7:53 AM 71.1 °F 70.0 °F 96% 29.69 in 8.0 mi South 5.8 mph - 0.00 in Rain Light Rain
8:06 AM 71.6 °F 69.8 °F 94% 29.74 in 2.5 mi Variable 4.6 mph - 0.13 in Rain Heavy Rain
8:14 AM 71.6 °F 69.8 °F 94% 29.72 in 1.8 mi Calm Calm - 0.16 in Rain Light Rain
8:16 AM 71.6 °F 69.8 °F 94% 29.73 in 3.0 mi Calm Calm - 0.16 in Rain Light Rain
8:27 AM 71.6 °F 71.6 °F 100% 29.73 in 2.5 mi Calm Calm - 0.19 in Rain Light Rain
8:36 AM 69.8 °F 69.8 °F 100% 29.73 in 5.0 mi North 6.9 mph - 0.20 in Rain Light Rain
8:53 AM 66.9 °F 66.0 °F 97% 29.70 in 9.0 mi North 8.1 mph - 0.21 in Rain Light Rain
9:07 AM 66.2 °F 66.2 °F 100% 29.75 in 4.0 mi North 4.6 mph - 0.02 in Rain , Thunderstorm Rain
9:10 AM 66.2 °F 66.2 °F 100% 29.75 in 1.8 mi Calm Calm - 0.07 in Rain , Thunderstorm Rain
9:19 AM 66.2 °F 66.2 °F 100% 29.75 in 0.2 mi Calm Calm - 0.32 in Fog , Rain , Thunderstorm Heavy Thunderstorms and Rain
9:28 AM 66.2 °F 66.2 °F 100% 29.77 in 0.5 mi South 3.5 mph - 0.58 in Fog , Rain , Thunderstorm Heavy Thunderstorms and Rain
9:31 AM 64.4 °F 64.4 °F 100% 29.76 in 0.5 mi South 3.5 mph - 0.60 in Fog , Rain Heavy Rain
9:35 AM 66.2 °F 66.2 °F 100% 29.76 in 1.0 mi Calm Calm - 0.63 in Rain Heavy Rain
9:46 AM 66.2 °F 66.2 °F 100% 29.77 in 2.0 mi Calm Calm - 0.68 in Rain Heavy Rain
9:53 AM 66.0 °F 66.0 °F 100% 29.73 in 3.0 mi NNE 3.5 mph - 0.68 in Rain Light Rain
10:53 AM 66.9 °F 66.9 °F 100% 29.74 in 10.0 mi Calm Calm - 0.05 in   Overcast
11:53 AM 68.0 °F 66.9 °F 96% 29.75 in 10.0 mi Variable 3.5 mph - N/A   Overcast
12:00 PM 68.0 °F 66.2 °F 94% 29.79 in 10.0 mi Variable 3.5 mph - N/A   Overcast
12:46 PM 69.8 °F 68.0 °F 94% 29.79 in 10.0 mi Calm Calm - 0.00 in Rain Light Rain
12:53 PM 69.1 °F 68.0 °F 96% 29.77 in 10.0 mi Calm Calm - 0.00 in   Overcast
1:40 PM 73.4 °F 66.2 °F 78% 29.80 in 10.0 mi Variable 5.8 mph - N/A   Mostly Cloudy
1:53 PM 73.0 °F 66.9 °F 81% 29.77 in 10.0 mi Calm Calm - N/A   Mostly Cloudy
2:34 PM 75.2 °F 66.2 °F 73% 29.79 in 10.0 mi Variable 5.8 mph - N/A   Mostly Cloudy
2:53 PM 75.0 °F 66.0 °F 73% 29.76 in 10.0 mi NNW 6.9 mph - N/A   Mostly Cloudy
3:53 PM 77.0 °F 64.0 °F 64% 29.75 in 10.0 mi Variable 6.9 mph - N/A   Partly Cloudy
4:53 PM 77.0 °F 63.0 °F 62% 29.76 in 10.0 mi Calm Calm - N/A   Partly Cloudy
5:53 PM 75.0 °F 64.0 °F 69% 29.78 in 10.0 mi Calm Calm - N/A   Scattered Clouds
6:53 PM 70.0 °F 66.9 °F 90% 29.82 in 10.0 mi North 6.9 mph - 0.02 in   Overcast
7:53 PM 68.0 °F 66.0 °F 93% 29.84 in 9.0 mi Calm Calm - N/A   Overcast
8:53 PM 66.9 °F 62.1 °F 84% 29.89 in 9.0 mi Variable 5.8 mph - N/A   Overcast
9:03 PM 66.2 °F 62.6 °F 88% 29.92 in 9.0 mi NNW 6.9 mph - N/A   Overcast
9:18 PM 66.2 °F 60.8 °F 83% 29.93 in 10.0 mi Variable 4.6 mph - N/A   Overcast
9:46 PM 64.4 °F 60.8 °F 88% 29.95 in 10.0 mi Variable 5.8 mph - N/A   Scattered Clouds
9:53 PM 64.0 °F 59.0 °F 84% 29.92 in 10.0 mi Variable 3.5 mph - N/A   Partly Cloudy
10:53 PM 63.0 °F 57.9 °F 84% 29.95 in 10.0 mi Calm Calm - N/A   Clear
11:53 PM 61.0 °F 55.9 °F 83% 29.96 in 10.0 mi Calm Calm - N/A   Clear